WUK76 EGGW-LUKK

Flight info

Callsign WUK76
Flight time 2h 40m
Altitude 35000
Route MATCH Q295 BRAIN M197 REDFA DCT TACHA DCT SUSET DCT OTMEC DCT KUMER DCT GALMA DCT OMELO DCT BILNA DCT ABULI DCT KARIL DCT SAT DCT SOMET DCT BUZZE DCT UNIRA
Aircraft A21N/M-SDE2E3FGHIRWXY/LB1

Departure

Time 2026-05-04 10:22
Airport London Luton Airport (EGGW)

Arrival

Time 2026-05-04 13:02
Airport Chişinău International Airport (LUKK)
Time Latitude Longitude Altitude Speed Heading
2026-05-04 09:42 51.87970 -0.37266 511 ft 0 kts 161°
2026-05-04 09:49 51.87971 -0.37266 511 ft 0 kts 161°
2026-05-04 09:54 51.87971 -0.37267 511 ft 0 kts 161°
2026-05-04 10:02 51.87972 -0.37267 511 ft 0 kts 161°
2026-05-04 10:10 51.87978 -0.37270 511 ft 3 kts 161°
2026-05-04 10:10 51.87997 -0.37281 511 ft 3 kts 148°
2026-05-04 10:11 51.88012 -0.37301 511 ft 3 kts 117°
2026-05-04 10:11 51.88017 -0.37330 511 ft 3 kts 81°
2026-05-04 10:11 51.88015 -0.37342 511 ft 1 kts 72°
2026-05-04 10:16 51.88042 -0.37190 511 ft 0 kts 86°
2026-05-04 10:16 51.88039 -0.37165 511 ft 6 kts 112°
2026-05-04 10:16 51.87983 -0.37113 512 ft 12 kts 163°
2026-05-04 10:17 51.87905 -0.37073 512 ft 12 kts 161°
2026-05-04 10:17 51.87820 -0.37028 517 ft 13 kts 162°
2026-05-04 10:19 51.87489 -0.37623 526 ft 15 kts 254°
2026-05-04 10:19 51.87459 -0.37798 525 ft 17 kts 254°
2026-05-04 10:19 51.87428 -0.37971 527 ft 13 kts 248°
2026-05-04 10:19 51.87374 -0.38062 526 ft 8 kts 206°
2026-05-04 10:20 51.87331 -0.38095 525 ft 7 kts 206°
2026-05-04 10:20 51.87274 -0.38112 526 ft 11 kts 181°
2026-05-04 10:20 51.87230 -0.38190 526 ft 11 kts 256°
2026-05-04 10:20 51.87231 -0.38314 524 ft 9 kts 255°
2026-05-04 10:21 51.87206 -0.38317 523 ft 2 kts 111°
2026-05-04 10:21 51.87207 -0.38307 523 ft 2 kts 71°
2026-05-04 10:21 51.87232 -0.38183 526 ft 38 kts 73°
2026-05-04 10:21 51.87363 -0.37417 526 ft 104 kts 74°
2026-05-04 10:22 51.87905 -0.34288 1322 ft 155 kts 74°
2026-05-04 10:22 51.88181 -0.32586 2036 ft 158 kts 74°
2026-05-04 10:22 51.88506 -0.30728 2425 ft 190 kts 73°
2026-05-04 10:23 51.88777 -0.29297 2620 ft 211 kts 72°
2026-05-04 10:23 51.89234 -0.26864 2975 ft 241 kts 74°
2026-05-04 10:25 51.80773 -0.14712 9419 ft 279 kts 159°
2026-05-04 10:25 51.78978 -0.13482 10317 ft 284 kts 158°
2026-05-04 10:25 51.77186 -0.11910 10734 ft 306 kts 143°
2026-05-04 10:25 51.75789 -0.09165 11047 ft 332 kts 116°
2026-05-04 10:26 51.75256 -0.05435 11366 ft 356 kts 91°
2026-05-04 10:26 51.75492 -0.01491 11804 ft 371 kts 82°
2026-05-04 10:26 51.75917 0.02664 12416 ft 380 kts 81°
2026-05-04 10:26 51.76336 0.06850 13145 ft 385 kts 82°
2026-05-04 10:27 51.76737 0.11152 13919 ft 390 kts 83°
2026-05-04 10:27 51.77121 0.15504 14568 ft 393 kts 83°
2026-05-04 10:27 51.77494 0.19886 14951 ft 395 kts 83°
2026-05-04 10:27 51.77906 0.24309 15491 ft 401 kts 79°
2026-05-04 10:28 51.78511 0.28720 16222 ft 404 kts 78°
2026-05-04 10:28 51.79157 0.33135 16925 ft 407 kts 77°
2026-05-04 10:28 51.79842 0.37595 17602 ft 411 kts 77°
2026-05-04 10:28 51.80552 0.42091 18265 ft 415 kts 77°
2026-05-04 10:29 51.81276 0.46622 18847 ft 418 kts 76°
2026-05-04 10:29 51.82009 0.51202 19330 ft 424 kts 76°
2026-05-04 10:29 51.82752 0.55856 19816 ft 430 kts 76°
2026-05-04 10:29 51.83484 0.60466 20302 ft 434 kts 76°
2026-05-04 10:30 51.84234 0.65214 20813 ft 439 kts 76°
2026-05-04 10:30 51.84990 0.70024 21311 ft 443 kts 76°
2026-05-04 10:30 51.85750 0.74881 21807 ft 448 kts 76°
2026-05-04 10:30 51.86515 0.79792 22303 ft 452 kts 76°
2026-05-04 10:31 51.87286 0.84749 22783 ft 456 kts 76°
2026-05-04 10:31 51.88060 0.89748 23252 ft 461 kts 76°
2026-05-04 10:32 51.92734 1.20253 25571 ft 480 kts 78°
2026-05-04 10:33 51.93532 1.25522 25934 ft 483 kts 78°
2026-05-04 10:33 51.94333 1.30823 26279 ft 486 kts 78°
2026-05-04 10:33 51.95134 1.36149 26624 ft 488 kts 78°
2026-05-04 10:33 51.95939 1.41517 26966 ft 491 kts 79°
2026-05-04 10:34 51.96733 1.46825 27409 ft 490 kts 79°
2026-05-04 10:34 51.97533 1.52189 27860 ft 490 kts 79°
2026-05-04 10:34 51.98332 1.57560 28296 ft 490 kts 79°
2026-05-04 10:34 51.99127 1.62929 28725 ft 489 kts 80°
2026-05-04 10:35 51.99919 1.68296 29139 ft 489 kts 80°
2026-05-04 10:35 52.00708 1.73660 29546 ft 489 kts 81°
2026-05-04 10:35 52.01494 1.79026 29946 ft 489 kts 81°
2026-05-04 10:35 52.02277 1.84394 30306 ft 488 kts 81°
2026-05-04 10:36 52.03057 1.89749 30711 ft 486 kts 81°
2026-05-04 10:36 52.03832 1.95087 31044 ft 485 kts 80°
2026-05-04 10:36 52.04592 2.00348 31361 ft 485 kts 80°
2026-05-04 10:36 52.05358 2.05668 31719 ft 483 kts 80°
2026-05-04 10:37 52.06119 2.10969 32094 ft 481 kts 79°
2026-05-04 10:37 52.06875 2.16255 32457 ft 479 kts 79°
2026-05-04 10:37 52.07624 2.21518 32801 ft 477 kts 79°
2026-05-04 10:37 52.08370 2.26768 33136 ft 476 kts 79°
2026-05-04 10:39 52.13088 2.57994 34308 ft 482 kts 74°
2026-05-04 10:39 52.14098 2.63184 34575 ft 480 kts 74°
2026-05-04 10:39 52.15118 2.68345 34858 ft 478 kts 74°
2026-05-04 10:40 52.16131 2.73500 35005 ft 479 kts 74°
2026-05-04 10:40 52.18111 2.83777 35009 ft 478 kts 74°
2026-05-04 10:41 52.20063 2.94137 35013 ft 478 kts 75°
2026-05-04 10:41 52.21997 3.04518 35009 ft 481 kts 75°
2026-05-04 10:42 52.23934 3.14968 35012 ft 481 kts 75°
2026-05-04 10:42 52.25227 3.25513 35009 ft 474 kts 90°
2026-05-04 10:43 52.24957 3.36216 35010 ft 471 kts 97°
2026-05-04 10:45 52.22248 3.78838 34998 ft 474 kts 99°
2026-05-04 10:45 52.21564 3.89530 35013 ft 474 kts 99°
2026-05-04 10:46 52.20869 4.00226 34990 ft 475 kts 100°
2026-05-04 10:46 52.20160 4.10941 35000 ft 476 kts 101°
2026-05-04 10:47 52.19444 4.21589 34994 ft 476 kts 101°
2026-05-04 10:47 52.18718 4.32256 34991 ft 476 kts 101°
2026-05-04 10:49 52.15723 4.74866 34990 ft 476 kts 101°
2026-05-04 10:50 52.14947 4.85550 34989 ft 475 kts 101°
2026-05-04 10:52 52.11627 5.28227 34983 ft 476 kts 103°
2026-05-04 10:52 52.10705 5.38702 34979 ft 476 kts 103°
2026-05-04 10:54 52.06907 5.81271 34994 ft 476 kts 103°
2026-05-04 10:56 52.03052 6.23816 34980 ft 477 kts 103°
2026-05-04 10:57 52.02059 6.34497 34980 ft 478 kts 103°
2026-05-04 10:57 52.01063 6.45116 34975 ft 479 kts 103°
2026-05-04 10:58 52.00053 6.55772 34975 ft 479 kts 103°
2026-05-04 10:58 51.99038 6.66382 34975 ft 479 kts 103°
2026-05-04 10:59 51.98008 6.77048 34974 ft 479 kts 103°
2026-05-04 10:59 51.96968 6.87704 34960 ft 478 kts 103°
2026-05-04 11:00 51.95920 6.98346 34974 ft 477 kts 103°
2026-05-04 11:02 51.91645 7.40707 34971 ft 477 kts 104°
2026-05-04 11:05 51.83206 8.20062 34978 ft 479 kts 104°
2026-05-04 11:06 51.82037 8.30652 34964 ft 479 kts 104°
2026-05-04 11:06 51.80856 8.41253 34980 ft 480 kts 105°
2026-05-04 11:10 51.72329 9.15287 34979 ft 480 kts 105°
2026-05-04 11:12 51.67244 9.57488 34978 ft 480 kts 105°
2026-05-04 11:12 51.65948 9.68042 34980 ft 480 kts 105°
2026-05-04 11:13 51.64651 9.78512 34984 ft 480 kts 105°
2026-05-04 11:13 51.63336 9.89049 34983 ft 480 kts 105°
2026-05-04 11:14 51.62011 9.99583 34978 ft 480 kts 105°
2026-05-04 11:16 51.56645 10.41443 34985 ft 478 kts 105°
2026-05-04 11:16 51.55282 10.51886 34989 ft 478 kts 105°
2026-05-04 11:17 51.53907 10.62329 34985 ft 478 kts 106°
2026-05-04 11:19 51.47041 11.03239 34992 ft 475 kts 109°
2026-05-04 11:19 51.45289 11.13464 34989 ft 477 kts 109°
2026-05-04 11:20 51.43516 11.23748 34996 ft 487 kts 109°
2026-05-04 11:20 51.41690 11.34286 34993 ft 492 kts 109°
2026-05-04 11:22 51.33452 11.75727 34995 ft 489 kts 112°
2026-05-04 11:23 51.31285 11.85994 34999 ft 489 kts 112°
2026-05-04 11:25 51.23662 12.21895 35002 ft 488 kts 112°
2026-05-04 11:25 51.21458 12.32155 35007 ft 488 kts 112°
2026-05-04 11:27 51.11459 12.78066 35003 ft 488 kts 112°
2026-05-04 11:28 51.09211 12.88249 35001 ft 487 kts 112°
2026-05-04 11:28 51.06959 12.98401 34996 ft 487 kts 112°
2026-05-04 11:29 51.04713 13.08475 34992 ft 487 kts 112°
2026-05-04 11:29 51.02444 13.18605 34991 ft 487 kts 112°
2026-05-04 11:33 50.86425 13.88764 34987 ft 484 kts 112°
2026-05-04 11:33 50.84097 13.98764 34985 ft 484 kts 113°
2026-05-04 11:34 50.81442 14.08514 34983 ft 482 kts 118°
2026-05-04 11:34 50.78534 14.18054 34977 ft 482 kts 118°
2026-05-04 11:35 50.75628 14.27525 34983 ft 482 kts 118°
2026-05-04 11:35 50.72730 14.37085 34989 ft 483 kts 118°
2026-05-04 11:36 50.69846 14.46647 34988 ft 483 kts 118°
2026-05-04 11:36 50.66956 14.56199 34989 ft 483 kts 118°
2026-05-04 11:37 50.64058 14.65737 34986 ft 483 kts 118°
2026-05-04 11:37 50.61167 14.75211 34990 ft 483 kts 118°
2026-05-04 11:38 50.58250 14.84732 34991 ft 483 kts 118°
2026-05-04 11:38 50.55327 14.94238 34996 ft 483 kts 118°
2026-05-04 11:39 50.52396 15.03729 34991 ft 483 kts 118°
2026-05-04 11:41 50.42079 15.36852 34999 ft 484 kts 118°
2026-05-04 11:41 50.39107 15.46312 35000 ft 483 kts 118°
2026-05-04 11:42 50.36151 15.55684 35003 ft 482 kts 118°
2026-05-04 11:42 50.33188 15.65047 35003 ft 482 kts 118°
2026-05-04 11:43 50.30202 15.74441 35007 ft 482 kts 118°
2026-05-04 11:43 50.27212 15.83816 34999 ft 482 kts 118°
2026-05-04 11:44 50.24237 15.93107 35007 ft 480 kts 118°
2026-05-04 11:44 50.21242 16.02427 34998 ft 481 kts 118°
2026-05-04 11:45 50.18232 16.11757 35001 ft 481 kts 118°
2026-05-04 11:45 50.15237 16.21007 35004 ft 481 kts 118°
2026-05-04 11:46 50.12218 16.30298 35002 ft 480 kts 118°
2026-05-04 11:46 50.09200 16.39551 35006 ft 479 kts 118°
2026-05-04 11:47 50.06172 16.48795 35006 ft 479 kts 118°
2026-05-04 11:47 50.03139 16.58026 35007 ft 479 kts 118°
2026-05-04 11:48 50.00120 16.67178 35005 ft 478 kts 118°
2026-05-04 11:48 49.97085 16.76347 35008 ft 476 kts 118°
2026-05-04 11:49 49.94052 16.85478 35011 ft 476 kts 118°
2026-05-04 11:49 49.91010 16.94605 35019 ft 476 kts 118°
2026-05-04 11:50 49.87958 17.03726 35014 ft 476 kts 118°
2026-05-04 11:50 49.84919 17.12773 35021 ft 477 kts 119°
2026-05-04 11:51 49.81838 17.21914 35020 ft 479 kts 118°
2026-05-04 11:51 49.78751 17.31038 35019 ft 478 kts 119°
2026-05-04 11:52 49.75655 17.40157 35022 ft 479 kts 118°
2026-05-04 11:52 49.72574 17.49200 35017 ft 480 kts 118°
2026-05-04 11:53 49.69455 17.58322 35021 ft 480 kts 118°
2026-05-04 11:53 49.66337 17.67412 35017 ft 480 kts 119°
2026-05-04 11:55 49.53781 18.03680 35025 ft 481 kts 120°
2026-05-04 11:56 49.50618 18.12736 35024 ft 478 kts 120°
2026-05-04 11:56 49.47476 18.21703 35029 ft 482 kts 119°
2026-05-04 11:57 49.44293 18.30751 35031 ft 480 kts 119°
2026-05-04 11:57 49.41106 18.39779 35045 ft 482 kts 119°
2026-05-04 11:58 49.37786 18.48686 35039 ft 479 kts 123°
2026-05-04 11:58 49.34103 18.57254 35047 ft 483 kts 124°
2026-05-04 11:59 49.30364 18.65705 35048 ft 480 kts 124°
2026-05-04 11:59 49.26637 18.74200 35045 ft 482 kts 124°
2026-05-04 12:00 49.22914 18.82745 35065 ft 482 kts 124°
2026-05-04 12:00 49.19230 18.91203 35066 ft 481 kts 124°
2026-05-04 12:01 49.15502 18.99731 35069 ft 482 kts 124°
2026-05-04 12:02 49.02476 19.29303 35085 ft 480 kts 123°
2026-05-04 12:03 48.98733 19.37740 35080 ft 481 kts 123°
2026-05-04 12:03 48.94989 19.46153 35087 ft 480 kts 123°
2026-05-04 12:04 48.91230 19.54574 35091 ft 482 kts 123°
2026-05-04 12:04 48.87468 19.62976 35087 ft 480 kts 123°
2026-05-04 12:05 48.83733 19.71289 35095 ft 479 kts 123°
2026-05-04 12:05 48.79977 19.79625 35091 ft 478 kts 123°
2026-05-04 12:06 48.76220 19.87936 35095 ft 479 kts 123°
2026-05-04 12:06 48.72452 19.96246 35096 ft 478 kts 123°
2026-05-04 12:07 48.68704 20.04484 35097 ft 479 kts 123°
2026-05-04 12:07 48.64911 20.12799 35095 ft 480 kts 123°
2026-05-04 12:08 48.61123 20.21078 35097 ft 478 kts 123°
2026-05-04 12:08 48.57332 20.29336 35096 ft 477 kts 123°
2026-05-04 12:09 48.53572 20.37503 35095 ft 476 kts 123°
2026-05-04 12:09 48.49784 20.45705 35094 ft 476 kts 123°
2026-05-04 12:10 48.46490 20.54322 35097 ft 475 kts 116°
2026-05-04 12:10 48.43439 20.63143 35098 ft 475 kts 115°
2026-05-04 12:11 48.40452 20.71927 35097 ft 474 kts 115°
2026-05-04 12:11 48.37445 20.80730 35091 ft 473 kts 115°
2026-05-04 12:12 48.34425 20.89508 35093 ft 473 kts 115°
2026-05-04 12:12 48.31396 20.98265 35096 ft 473 kts 115°
2026-05-04 12:14 48.19246 21.33098 35102 ft 471 kts 116°
2026-05-04 12:15 48.16189 21.41788 35097 ft 472 kts 116°
2026-05-04 12:15 48.13145 21.50416 35099 ft 472 kts 116°
2026-05-04 12:16 48.10073 21.59091 35101 ft 472 kts 116°
2026-05-04 12:16 48.06992 21.67764 35101 ft 472 kts 116°
2026-05-04 12:17 48.03907 21.76420 35111 ft 472 kts 116°
2026-05-04 12:17 48.00816 21.85064 35102 ft 471 kts 116°
2026-05-04 12:18 47.97743 21.93627 35101 ft 471 kts 116°
2026-05-04 12:18 47.94644 22.02239 35101 ft 471 kts 116°
2026-05-04 12:19 47.91539 22.10839 35103 ft 471 kts 116°
2026-05-04 12:19 47.88426 22.19431 35099 ft 471 kts 116°
2026-05-04 12:20 47.85322 22.27970 35105 ft 470 kts 116°
2026-05-04 12:20 47.82221 22.36475 35102 ft 470 kts 116°
2026-05-04 12:21 47.79455 22.45247 35102 ft 467 kts 105°
2026-05-04 12:21 47.77828 22.54558 35103 ft 465 kts 101°
2026-05-04 12:22 47.76448 22.63952 35102 ft 465 kts 100°
2026-05-04 12:22 47.75112 22.73290 35102 ft 465 kts 100°
2026-05-04 12:23 47.73741 22.82680 35102 ft 465 kts 100°
2026-05-04 12:23 47.72384 22.92071 35103 ft 464 kts 99°
2026-05-04 12:24 47.71205 23.01471 35103 ft 463 kts 98°
2026-05-04 12:24 47.70072 23.10876 35102 ft 463 kts 98°
2026-05-04 12:25 47.69054 23.20233 35101 ft 462 kts 95°
2026-05-04 12:25 47.68368 23.29700 35110 ft 461 kts 93°
2026-05-04 12:26 47.67742 23.39164 35098 ft 460 kts 93°
2026-05-04 12:26 47.67076 23.48613 35101 ft 460 kts 94°
2026-05-04 12:27 47.66382 23.57996 35104 ft 461 kts 94°
2026-05-04 12:27 47.65667 23.67431 35101 ft 460 kts 94°
2026-05-04 12:28 47.64945 23.76872 35100 ft 460 kts 94°
2026-05-04 12:28 47.64076 23.86266 35087 ft 460 kts 96°
2026-05-04 12:29 47.63124 23.95646 35088 ft 460 kts 96°
2026-05-04 12:29 47.62175 24.04964 35082 ft 460 kts 96°
2026-05-04 12:30 47.61216 24.14332 35082 ft 460 kts 96°
2026-05-04 12:30 47.60250 24.23703 35072 ft 460 kts 96°
2026-05-04 12:31 47.59284 24.33003 35073 ft 460 kts 96°
2026-05-04 12:31 47.58303 24.42364 35075 ft 460 kts 97°
2026-05-04 12:32 47.56818 24.56395 35088 ft 460 kts 97°
2026-05-04 12:33 47.55820 24.65738 35074 ft 459 kts 97°
2026-05-04 12:33 47.54822 24.74998 35070 ft 459 kts 97°
2026-05-04 12:34 47.53810 24.84312 35073 ft 459 kts 97°
2026-05-04 12:34 47.52789 24.93638 35070 ft 459 kts 97°
2026-05-04 12:35 47.51762 25.02952 35064 ft 458 kts 97°
2026-05-04 12:35 47.50735 25.12188 35065 ft 458 kts 97°
2026-05-04 12:36 47.49694 25.21481 35069 ft 458 kts 97°
2026-05-04 12:36 47.48647 25.30760 35069 ft 458 kts 98°
2026-05-04 12:37 47.47592 25.40037 35060 ft 458 kts 97°
2026-05-04 12:37 47.46530 25.49311 35057 ft 458 kts 98°
2026-05-04 12:38 47.45466 25.58526 35068 ft 458 kts 97°
2026-05-04 12:38 47.44388 25.67799 35063 ft 458 kts 98°
2026-05-04 12:39 47.43303 25.77066 35062 ft 458 kts 98°
2026-05-04 12:39 47.42218 25.86253 35050 ft 456 kts 98°
2026-05-04 12:40 47.41128 25.95439 35047 ft 456 kts 98°
2026-05-04 12:40 47.40024 26.04667 35039 ft 456 kts 98°
2026-05-04 12:41 47.38913 26.13886 35040 ft 456 kts 98°
2026-05-04 12:41 47.37795 26.23095 35046 ft 456 kts 98°
2026-05-04 12:42 47.36679 26.32226 35030 ft 454 kts 98°
2026-05-04 12:42 47.36120 26.36770 34807 ft 447 kts 98°
2026-05-04 12:42 47.35568 26.41244 34563 ft 441 kts 99°
2026-05-04 12:42 47.35018 26.45686 34326 ft 440 kts 99°
2026-05-04 12:43 47.34467 26.50130 34088 ft 440 kts 98°
2026-05-04 12:43 47.33915 26.54564 33783 ft 441 kts 99°
2026-05-04 12:43 47.33361 26.59009 33191 ft 441 kts 98°
2026-05-04 12:43 47.32804 26.63455 32519 ft 442 kts 99°
2026-05-04 12:44 47.32249 26.67869 31683 ft 445 kts 99°
2026-05-04 12:44 47.31682 26.72363 30817 ft 448 kts 99°
2026-05-04 12:44 47.31110 26.76884 29934 ft 450 kts 99°
2026-05-04 12:44 47.30534 26.81425 28958 ft 452 kts 99°
2026-05-04 12:45 47.29952 26.85983 28001 ft 454 kts 99°
2026-05-04 12:45 47.29367 26.90564 27096 ft 456 kts 99°
2026-05-04 12:45 47.28777 26.95163 26303 ft 457 kts 99°
2026-05-04 12:45 47.28184 26.99767 25607 ft 458 kts 99°
2026-05-04 12:46 47.27790 27.02817 25149 ft 457 kts 99°
2026-05-04 12:46 47.27006 27.08869 24273 ft 451 kts 99°
2026-05-04 12:46 47.26419 27.13382 23622 ft 447 kts 99°
2026-05-04 12:46 47.25836 27.17840 22857 ft 441 kts 98°
2026-05-04 12:47 47.25258 27.22255 22096 ft 435 kts 98°
2026-05-04 12:47 47.24688 27.26596 21363 ft 430 kts 98°
2026-05-04 12:47 47.24125 27.30877 20649 ft 424 kts 98°
2026-05-04 12:47 47.23566 27.35104 19949 ft 419 kts 98°
2026-05-04 12:48 47.23198 27.37885 19496 ft 416 kts 98°
2026-05-04 12:48 47.22470 27.43374 18606 ft 409 kts 98°
2026-05-04 12:48 47.21926 27.47458 17910 ft 405 kts 98°
2026-05-04 12:48 47.21386 27.51496 17174 ft 399 kts 98°
2026-05-04 12:49 47.20854 27.55472 16525 ft 394 kts 98°
2026-05-04 12:49 47.20325 27.59403 15891 ft 390 kts 98°
2026-05-04 12:49 47.19978 27.61980 15472 ft 388 kts 98°
2026-05-04 12:49 47.19457 27.65847 14864 ft 384 kts 98°
2026-05-04 12:50 47.18938 27.69685 14284 ft 380 kts 98°
2026-05-04 12:50 47.18423 27.73482 13700 ft 377 kts 97°
2026-05-04 12:50 47.17747 27.78454 12860 ft 373 kts 98°
2026-05-04 12:50 47.17405 27.80968 12440 ft 371 kts 98°
2026-05-04 12:51 47.16848 27.84657 11826 ft 369 kts 102°
2026-05-04 12:51 47.16018 27.88171 11250 ft 368 kts 107°
2026-05-04 12:51 47.15082 27.91616 10661 ft 359 kts 108°
2026-05-04 12:51 47.14146 27.94976 10080 ft 351 kts 108°
2026-05-04 12:52 47.13234 27.98250 9474 ft 343 kts 108°
2026-05-04 12:52 47.12350 28.01432 9094 ft 329 kts 108°
2026-05-04 12:52 47.11512 28.04436 9012 ft 307 kts 107°
2026-05-04 12:52 47.10731 28.07235 9013 ft 285 kts 107°
2026-05-04 12:53 47.10002 28.09858 9016 ft 274 kts 107°
2026-05-04 12:53 47.09295 28.12418 8834 ft 275 kts 107°
2026-05-04 12:53 47.08577 28.15023 8490 ft 275 kts 107°
2026-05-04 12:53 47.07859 28.17615 8112 ft 274 kts 107°
2026-05-04 12:54 47.07140 28.20201 7729 ft 273 kts 107°
2026-05-04 12:54 47.06423 28.22775 7377 ft 272 kts 107°
2026-05-04 12:54 47.05708 28.25339 6999 ft 271 kts 108°
2026-05-04 12:54 47.04999 28.27880 6638 ft 267 kts 108°
2026-05-04 12:55 47.04297 28.30389 6281 ft 265 kts 108°
2026-05-04 12:55 47.03598 28.32889 5927 ft 265 kts 108°
2026-05-04 12:55 47.02907 28.35356 5571 ft 265 kts 109°
2026-05-04 12:55 47.02197 28.37848 5222 ft 266 kts 112°
2026-05-04 12:56 47.01305 28.40239 4878 ft 267 kts 118°
2026-05-04 12:56 47.00320 28.42548 4522 ft 268 kts 120°
2026-05-04 12:56 46.99315 28.44843 4175 ft 268 kts 120°
2026-05-04 12:56 46.98315 28.47128 3984 ft 266 kts 120°
2026-05-04 12:57 46.97320 28.49406 3976 ft 267 kts 120°
2026-05-04 12:57 46.96330 28.51668 3982 ft 267 kts 120°
2026-05-04 12:57 46.95353 28.53964 3970 ft 266 kts 118°
2026-05-04 12:57 46.94403 28.56297 3964 ft 268 kts 118°
2026-05-04 12:58 46.93457 28.58644 3770 ft 268 kts 117°
2026-05-04 12:58 46.92635 28.61070 3545 ft 265 kts 107°
2026-05-04 12:58 46.92212 28.63641 3324 ft 256 kts 93°
2026-05-04 12:58 46.92162 28.66183 3077 ft 243 kts 87°
2026-05-04 12:59 46.92211 28.68599 2757 ft 232 kts 85°
2026-05-04 12:59 46.92273 28.70867 2447 ft 215 kts 84°
2026-05-04 12:59 46.92326 28.72971 2249 ft 201 kts 84°
2026-05-04 12:59 46.92376 28.74964 2396 ft 194 kts 85°
2026-05-04 13:00 46.92418 28.76882 2487 ft 184 kts 84°
2026-05-04 13:00 46.92461 28.78714 2464 ft 178 kts 84°
2026-05-04 13:00 46.92492 28.80469 2187 ft 167 kts 87°
2026-05-04 13:00 46.92507 28.82116 1893 ft 156 kts 86°
2026-05-04 13:01 46.92544 28.83650 1640 ft 146 kts 82°
2026-05-04 13:01 46.92590 28.85104 1287 ft 140 kts 83°
2026-05-04 13:01 46.92618 28.86497 1071 ft 136 kts 84°
2026-05-04 13:01 46.92657 28.87877 847 ft 136 kts 86°
2026-05-04 13:02 46.92704 28.89226 653 ft 134 kts 87°
2026-05-04 13:02 46.92726 28.90565 471 ft 129 kts 86°
2026-05-04 13:02 46.92754 28.91812 412 ft 110 kts 90°
2026-05-04 13:02 46.92769 28.92536 413 ft 30 kts 88°
2026-05-04 13:03 46.92775 28.92860 411 ft 33 kts 88°
2026-05-04 13:03 46.92783 28.93191 410 ft 33 kts 88°
2026-05-04 13:03 46.92834 28.93415 412 ft 17 kts
2026-05-04 13:03 46.92956 28.93413 412 ft 18 kts 359°
2026-05-04 13:04 46.93081 28.93431 411 ft 18 kts
2026-05-04 13:04 46.93200 28.93452 408 ft 16 kts
2026-05-04 13:04 46.93282 28.93467 411 ft 9 kts
2026-05-04 13:04 46.93350 28.93479 411 ft 10 kts
2026-05-04 13:05 46.93416 28.93476 411 ft 8 kts 321°
2026-05-04 13:05 46.93435 28.93354 411 ft 16 kts 276°
2026-05-04 13:05 46.93447 28.93199 411 ft 13 kts 277°
2026-05-04 13:05 46.93451 28.93150 411 ft 2 kts 276°
2026-05-04 13:06 46.93443 28.93117 395 ft 4 kts 228°
2026-05-04 13:06 46.93423 28.93105 402 ft 2 kts 190°
2026-05-04 13:06 46.93408 28.93102 411 ft 2 kts 188°
2026-05-04 13:06 46.93406 28.93101 411 ft 0 kts 189°
2026-05-04 13:07 46.93406 28.93102 411 ft 0 kts 189°
2026-05-04 13:12 46.93407 28.93102 411 ft 0 kts 189°
2026-05-04 13:23 46.93408 28.93102 411 ft 0 kts 189°
2026-05-04 13:34 46.93409 28.93102 411 ft 0 kts 189°
2026-05-04 13:48 46.93410 28.93102 411 ft 0 kts 189°
2026-05-04 14:01 46.93411 28.93103 411 ft 0 kts 189°
2026-05-04 14:13 46.93412 28.93103 411 ft 0 kts 189°
2026-05-04 14:23 46.93413 28.93103 411 ft 0 kts 189°
2026-05-04 14:32 46.93414 28.93103 411 ft 0 kts 189°
2026-05-04 14:41 46.93415 28.93103 411 ft 0 kts 189°
2026-05-04 14:44 46.93415 28.93104 411 ft 0 kts 189°
2026-05-04 14:50 46.93416 28.93104 411 ft 0 kts 189°
2026-05-04 14:58 46.93417 28.93104 411 ft 0 kts 189°
2026-05-04 15:07 46.93418 28.93104 411 ft 0 kts 189°
2026-05-04 15:16 46.93419 28.93104 411 ft 0 kts 189°
2026-05-04 15:23 46.93419 28.93105 411 ft 0 kts 189°
2026-05-04 15:24 46.93420 28.93105 411 ft 0 kts 189°
2026-05-04 15:34 46.93421 28.93105 411 ft 0 kts 189°
2026-05-04 15:42 46.93422 28.93105 411 ft 0 kts 189°
2026-05-04 15:52 46.93423 28.93105 411 ft 0 kts 189°
2026-05-04 16:02 46.93424 28.93105 411 ft 0 kts 189°
2026-05-04 16:05 46.93424 28.93106 411 ft 0 kts 189°
2026-05-04 16:13 46.93425 28.93106 411 ft 0 kts 189°
2026-05-04 16:24 46.93426 28.93106 411 ft 0 kts 189°
2026-05-04 16:35 46.93427 28.93106 411 ft 0 kts 189°
2026-05-04 16:47 46.93428 28.93106 410 ft 0 kts 189°
2026-05-04 16:56 46.93428 28.93107 411 ft 0 kts 189°
2026-05-04 17:00 46.93429 28.93107 411 ft 0 kts 188°
2026-05-04 17:16 46.93430 28.93107 411 ft 0 kts 188°
2026-05-04 17:32 46.93431 28.93107 411 ft 0 kts 188°
2026-05-04 17:49 46.93432 28.93107 411 ft 0 kts 188°